Ephrata, WA

10:38 PM PDT on May 22, 2017 (GMT -0700)
Ephrata Municipal

Weather History for KEPH - December, 2012

Change the Weather History Date:

Saturday, December 1, 2012

  Actual Average Record
Temperature  
Mean Temperature 46 °F 31 °F  
Max Temperature 53 °F 37 °F 63 °F (1972)
Min Temperature 38 °F 24 °F 1 °F (1985)
Degree Days  
Heating Degree Days 19 34  
Month to date heating degree days 19 34  
Since 1 July heating degree days 1279 1453  
Cooling Degree Days 0 0  
Month to date cooling degree days 0 0  
Year to date cooling degree days 837 772  
Moisture  
Dew Point 36 °F    
Average Humidity 74    
Maximum Humidity 100    
Minimum Humidity 48    
Precipitation  
Precipitation 0.04 in 0.04 in 0.45 in (1979)
Month to date precipitation 0.04 0.04  
Year to date precipitation 6.99 6.65  
Sea Level Pressure  
Sea Level Pressure 29.59 in    
Wind  
Wind Speed 8 mph (SW)    
Max Wind Speed 23 mph    
Max Gust Speed 28 mph    
Visibility 10 miles    
Events Rain    
T = Trace of Precipitation, MM = Missing Value Source: NWS Daily Summary

Daily Weather History Graph

Daily Weather History Graph

Search for Another Location

Airport or City:

Trip Planner

Search our weather history database for the weather conditions in past years. The results will help you decide how hot, cold, wet, or windy it might be!

Date:

Astronomy

Dec. 01, 2012 Rise Set
Actual Time 7:24 AM PST 4:09 PM PST
Civil Twilight 6:50 AM PST 4:44 PM PST
Nautical Twilight 6:11 AM PST 5:22 PM PST
Astronomical Twilight 5:34 AM PST 5:59 PM PST
Moon 7:08 PM PST (12/1) 9:38 AM PST (12/1)
Length of Visible Light 9h 54m
Length of Day
8h 44m
Waning Gibbous, 91% of the Moon is Illuminated
Dec 1
Waning Gibbous
Dec 6
Last Quarter
Dec 13
New
Dec 19
First Quarter
Dec 28
Full

Hourly Weather History & Observations

Time (PST) Temp. Windchill Dew Point Humidity Pressure Visibility Wind Dir Wind Speed Gust Speed Precip Events Conditions
12:53 AM 39.0 °F 34.8 °F 37.9 °F 96% 29.52 in 6.0 mi North 5.8 mph - N/A   Mostly Cloudy
1:53 AM 39.9 °F 36.7 °F 37.9 °F 93% 29.52 in 9.0 mi North 4.6 mph - N/A   Mostly Cloudy
2:53 AM 37.9 °F - 37.0 °F 97% 29.52 in 9.0 mi Calm Calm - N/A   Scattered Clouds
3:53 AM 41.0 °F - 37.9 °F 89% 29.50 in 10.0 mi Calm Calm - N/A   Mostly Cloudy
4:53 AM 41.0 °F 35.8 °F 37.9 °F 89% 29.49 in 10.0 mi South 8.1 mph - N/A   Mostly Cloudy
5:53 AM 42.1 °F 36.1 °F 37.9 °F 85% 29.52 in 10.0 mi SW 10.4 mph - N/A   Clear
7:53 AM 45.0 °F 38.2 °F 36.0 °F 71% 29.58 in 10.0 mi WSW 15.0 mph - N/A   Clear
8:53 AM 45.0 °F 39.3 °F 37.0 °F 74% 29.62 in 10.0 mi SW 11.5 mph - N/A   Clear
9:53 AM 48.9 °F - 37.9 °F 66% 29.65 in 10.0 mi SW 11.5 mph - N/A   Clear
10:53 AM 50.0 °F - 37.0 °F 61% 29.67 in 10.0 mi SSW 18.4 mph - N/A   Clear
11:53 AM 52.0 °F - 33.1 °F 49% 29.66 in 10.0 mi SW 20.7 mph - N/A   Clear
12:53 PM 52.0 °F - 34.0 °F 50% 29.66 in 10.0 mi SSW 20.7 mph - N/A   Clear
1:53 PM 52.0 °F - 32.0 °F 47% 29.65 in 10.0 mi South 16.1 mph - N/A   Clear
2:53 PM 46.9 °F - 35.1 °F 63% 29.65 in 10.0 mi South 10.4 mph - N/A   Clear
3:53 PM 44.1 °F 39.0 °F 34.0 °F 68% 29.66 in 10.0 mi South 9.2 mph - N/A   Clear
4:53 PM 42.1 °F 39.2 °F 33.1 °F 70% 29.66 in 10.0 mi South 4.6 mph - N/A   Clear
5:53 PM 41.0 °F - 34.0 °F 76% 29.64 in 10.0 mi Calm Calm - N/A   Clear
6:53 PM 43.0 °F - 34.0 °F 71% 29.62 in 10.0 mi Calm Calm - N/A   Clear
7:53 PM 44.1 °F 41.5 °F 35.1 °F 71% 29.60 in 10.0 mi SE 4.6 mph - N/A   Overcast
8:53 PM 41.0 °F 38.0 °F 36.0 °F 82% 29.56 in 10.0 mi NNE 4.6 mph - 0.00 in   Overcast
9:53 PM 39.9 °F 36.7 °F 37.0 °F 89% 29.55 in 10.0 mi North 4.6 mph - 0.00 in Rain Light Rain
10:53 PM 41.0 °F 37.1 °F 37.9 °F 89% 29.52 in 10.0 mi North 5.8 mph - 0.03 in Rain Light Rain
11:53 PM 41.0 °F 38.0 °F 39.0 °F 93% 29.46 in 10.0 mi NNE 4.6 mph - 0.01 in Rain Light Rain